Zurück zum Katalog

COSMOS 1275 DEB

AktivPO
NORAD 13810·DEBRIS·🇷🇺 Russia

Gestartet Jun 4, 1981 von Plesetsk Cosmodrome

Loading…

Nächste Überflüge (nächste 24 Stunden)

TLE

AktuellSource: Space-Track

Epoche: Sep 14, 2026, 02:43 UTC

1 13810U 81053HE  26257.11359921  .00000653  00000-0  70571-3 0  9990
2 13810  83.0116 302.3442 0124963 126.0369 264.6048 13.68416886168314

Verfolge COSMOS 1275 DEB in Echtzeit mit AllMySat

Download on the App Store